STARLINK-11243, 60927

Orbit data source: Space-Track

STARLINK-11243, 60927 is a payload satellite owned by SpaceX/Seattle (US) in LEO that was launched on Sat, 31 Aug 2024 UTC via an FALCON 9 launch vehicle from the Air Force Western Test Range (AFWTR). Payloads include a variety of satellites, spacecraft, and rockets equipped with specific instruments for various scientific and technological missions. These include communications satellites like Starlink; space stations such as the ISS; scientific satellites like the Hubble; Earth observation satellites from companies like Planet Labs, Umbra, and HawkEye 360; GPS; miniature CubeSats for education and research; and military/defense satellites.

Loading next visibility...
STARLINK-11243 details
Identifier
60927, 2024-155D
Orbit
LEO
Last TLE update19 hours ago
Origin
Flag of USSpaceX/Seattle (US)
ManufacturerSpaceX/Seattle
MissionOperational spacecraft
Bus & MotorSTARLINK V2M, Unknown motor
Mass730 kg wet, ~700 kg dry
Launch date (UTC)
2024-08-31 (5 months ago)
Launch vehicle
FALCON 9
Launch site
Air Force Western Test Range (AFWTR)
Object type
Payload
Rocket body
Debris
Shape & HBRUnknown
Radar Cross SectionLarge (>1 m²)

Expand to show TLE details & history

TLE from 19 hours ago
0 STARLINK-11243
1 60927U 24155D   25014.82869613 -.00000797  00000-0 -17284-5 0  9998
2 60927  53.1594 246.2239 0000840  89.5210 270.5904 15.69709662 22617
Epoch: 2025-01-14T19:53Z
Definitive object data (Epoch: 2025-01-14T19:53:19.345Z)
Latitude-0.00004°
Longitude-166.63652°
Altitude360.637 km
Speed7.694 km/s
True Right ascension16h 24m 53s
True Declination0° 00' 00"
Sunlit
Object was in daylight at TLE epoch
Visualization TLE readout
Latitude-34.15269°
Longitude39.75875°
Altitude370.888 km
Speed7.687 km/s
Apparent Right ascension05h 05m 40s
Apparent Declination-38° 03' 36"
Sunlit
Object is in full shadow
Visualization observer readout
Local Sidereal Time15:51:25
Azimuth271.393° WNW
Elevation-75.478°
Doppler factor1
Orbital elements
Apogee altitude360.555 km
Perigee altitude359.422 km
Semi-major axis6,738.126 km
Eccentricity0.000084
Inclination53.1594°
RAAN246.2239°
Arg. of periapsis89.521°
True anomaly270.58077°
Mean anomaly270.5904°
Eccentric anomaly270.58559°
Mean motion3.92405 °/min
BSTAR-0.0000017284
Orbital period91.74 mins
Loading maneuver chart data...
Loading historical data...
Loading historical data...
Loading historical data...
Loading historical data...
Loading historical data...
Loading historical data...
Loading historical data...

STARLINK-11243 Visibility forecast

Observer location: undefined°, undefined

Span
Click to sort rows by Start time (UTC) header in descending order
Start Az.
Max El. time (UTC)
Max El. Az.
Max El.
End time (UTC)
End Az.
5 mins2025-01-15 17:26:36.268Z203.056° SW2025-01-15 17:29:36.268Z118.372° SE29.896°2025-01-15 17:31:36.268Z69.08° E
|